Weather History for Pecs, Hungary

Change the Weather History Date:

Sunday, September 23, 2012

  Actual Average Record
Temperature  
Mean Temperature 62 °F -  
Max Temperature 72 °F 64 °F - ()
Min Temperature 53 °F 47 °F - ()
Degree Days  
Heating Degree Days 2    
Growing Degree Days 12 (Base 50)    
Moisture  
Dew Point 51 °F    
Average Humidity 65    
Maximum Humidity 88    
Minimum Humidity 44    
Precipitation  
Precipitation 0.00 in 0.05 in - ()
Sea Level Pressure  
Sea Level Pressure 30.09 in    
Wind  
Wind Speed 4 mph ()    
Max Wind Speed 8 mph    
Max Gust Speed -    
Visibility 6.2 miles    
Events      
T = Trace of Precipitation, MM = Missing Value Source: Averaged Metar Reports

Daily Weather History Graph

Daily Weather History Graph

Search for Another Location

Airport:

Trip Planner

Search our weather history database for the weather conditions in past years. The results will help you decide how hot, cold, wet, or windy it might be!

Date:

Astronomy

Sep. 23, 2012 Rise Set
Actual Time 6:35 AM CEST 6:42 PM CEST
Civil Twilight 6:05 AM CEST 7:12 PM CEST
Nautical Twilight 5:30 AM CEST 7:46 PM CEST
Astronomical Twilight 4:54 AM CEST 8:22 PM CEST
Moon 2:46 PM CEST (9/23) No Moon Set
Length of Visible Light 13h 06m
Length of Day
12h 06m
First Quarter, 57% of the Moon is Illuminated
Sep 23
First Quarter
Sep 30
Full
Oct 8
Last Quarter
Oct 15
New
Oct 22
First Quarter

Hourly Weather History & Observations

Time (CEST) Temp. Dew Point Humidity Pressure Visibility Wind Dir Wind Speed Gust Speed Precip Events Conditions
12:45 AM 59.0 °F 50.0 °F 72% 30.09 in - WNW 3.5 mph - N/A   Clear
1:45 AM 60.8 °F 50.0 °F 68% 30.09 in - West 5.8 mph - N/A   Clear
2:00 AM 60 °F 51 °F 63% 30.09 in 37 mi West 6.7 mph - -   Partly Cloudy
2:45 AM 59.0 °F 51.8 °F 77% 30.09 in - WNW 6.9 mph - N/A   Clear
3:45 AM 53.6 °F 50.0 °F 88% 30.09 in - NNW 4.6 mph - N/A   Clear
4:45 AM 55.4 °F 50.0 °F 82% 30.09 in - NNE 3.5 mph - N/A   Clear
5:45 AM 55.4 °F 50.0 °F 82% 30.12 in - NNE 6.9 mph - N/A   Clear
6:45 AM 55.4 °F 50.0 °F 82% 30.12 in 6.2 mi NE 4.6 mph - N/A   Scattered Clouds
7:00 AM - - N/A% - 6.2 mi ENE 5.8 mph - N/A   Scattered Clouds
7:15 AM 55.4 °F 50.0 °F 82% 30.12 in 6.2 mi Calm Calm - N/A   Scattered Clouds
7:45 AM 55.4 °F 50.0 °F 82% 30.12 in 6.2 mi Calm Calm - N/A   Scattered Clouds
8:00 AM 56 °F 50 °F 75% 30.13 in 31 mi Calm Calm - -   Partly Cloudy
8:15 AM 57.2 °F 50.0 °F 77% 30.12 in 6.2 mi Calm Calm - N/A   Scattered Clouds
8:45 AM 59.0 °F 50.0 °F 72% 30.15 in 6.2 mi ENE 1.2 mph - N/A   Mostly Cloudy
9:15 AM 60.8 °F 50.0 °F 68% 30.15 in 6.2 mi NE 5.8 mph - N/A   Mostly Cloudy
9:45 AM 62.6 °F 50.0 °F 63% 30.15 in 6.2 mi NE 5.8 mph - N/A   Mostly Cloudy
10:00 AM - - N/A% - 6.2 mi NE 5.8 mph - N/A   Mostly Cloudy
10:15 AM 62.6 °F 48.2 °F 59% 30.15 in 6.2 mi ENE 5.8 mph - N/A   Mostly Cloudy
10:45 AM 62.6 °F 48.2 °F 59% 30.15 in 6.2 mi East 4.6 mph - N/A   Mostly Cloudy
11:15 AM 64.4 °F 50.0 °F 59% 30.15 in 6.2 mi ESE 3.5 mph - N/A   Mostly Cloudy
11:45 AM 64.4 °F 50.0 °F 59% 30.15 in 6.2 mi South 3.5 mph - N/A   Mostly Cloudy
12:15 PM 66.2 °F 50.0 °F 56% 30.12 in 6.2 mi North 1.2 mph - N/A   Scattered Clouds
12:45 PM 66.2 °F 51.8 °F 60% 30.12 in 6.2 mi SW 3.5 mph - N/A   Mostly Cloudy
1:00 PM - - N/A% - - SW 5.8 mph - N/A   Dust Whirls
1:15 PM 68.0 °F 51.8 °F 56% 30.12 in 6.2 mi North 2.3 mph - N/A   Partly Cloudy
1:45 PM 68.0 °F 51.8 °F 56% 30.09 in 6.2 mi West 3.5 mph - N/A   Partly Cloudy
2:00 PM 69 °F 52 °F 44% 30.09 in 22 mi West 2.2 mph - -   Partly Cloudy
2:15 PM 69.8 °F 51.8 °F 53% 30.09 in 6.2 mi SW 2.3 mph - N/A   Partly Cloudy
2:45 PM 71.6 °F 51.8 °F 50% 30.09 in 6.2 mi West 4.6 mph - N/A   Partly Cloudy
3:15 PM 71.6 °F 51.8 °F 50% 30.06 in 6.2 mi West 6.9 mph - N/A   Partly Cloudy
3:45 PM 71.6 °F 51.8 °F 50% 30.06 in 6.2 mi WSW 5.8 mph - N/A   Partly Cloudy
4:00 PM - - N/A% - - West 5.8 mph - N/A   Clear
4:15 PM 71.6 °F 51.8 °F 50% 30.06 in 6.2 mi West 8.1 mph - N/A   Partly Cloudy
4:45 PM 71.6 °F 50.0 °F 46% 30.06 in - West 8.1 mph - N/A   Clear
6:15 PM 69.8 °F 51.8 °F 53% 30.04 in - WSW 3.5 mph - N/A   Clear
6:45 PM 66.2 °F 51.8 °F 60% 30.04 in - SW 2.3 mph - N/A   Clear
7:15 PM 66.2 °F 51.8 °F 60% 30.04 in - SSW 2.3 mph - N/A   Clear
7:45 PM 64.4 °F 51.8 °F 64% 30.04 in - South 1.2 mph - N/A   Clear
8:00 PM 65 °F 51 °F 52% 30.02 in 25 mi South 2.2 mph - -   Partly Cloudy
8:15 PM 64.4 °F 51.8 °F 64% 30.04 in - South 3.5 mph - N/A   Clear
8:45 PM 60.8 °F 51.8 °F 72% 30.04 in - SSE 3.5 mph - N/A   Clear
9:15 PM 62.6 °F 51.8 °F 68% 30.04 in - South 4.6 mph - N/A   Clear
9:45 PM 60.8 °F 51.8 °F 72% 30.04 in - South 2.3 mph - N/A   Clear
11:45 PM 59.0 °F 51.8 °F 77% 30.01 in - ESE 2.3 mph - N/A   Clear